,,Stat5,,Stat1,,Stat2,,Stat3,,Stat4,,Wind1,,Wind1,
time,status,PA1M_AVG,status,PR1M_SUM,status,RH1M_AVG,status,SR1M_AVG,status,TA1M_AVG,status,W1dAve1m,status,W1sAve1m,
2002-01-17, 00:00:00,VALID,916.87,VALID,0,VALID,97.7381,VALID,-0.0679233,VALID,20.232,VALID,132,VALID,0.668791,
2002-01-17, 00:01:00,VALID,916.895,VALID,0,VALID,97.6999,VALID,-0.0849042,VALID,20.2221,VALID,169,VALID,0.641741,
2002-01-17, 00:02:00,VALID,916.91,VALID,0,VALID,97.6923,VALID,-0.0509425,VALID,20.2385,VALID,186,VALID,0.295139,
2002-01-17, 00:03:00,VALID,916.92,VALID,0,VALID,97.6325,VALID,-0.0509425,VALID,20.2318,VALID,157,VALID,0.143709,
2002-01-17, 00:04:00,VALID,916.931,VALID,0,VALID,97.5626,VALID,-0.0849042,VALID,20.2293,VALID,139,VALID,0.161384,
2002-01-17, 00:05:00,VALID,916.936,VALID,0,VALID,97.466,VALID,-0.0849042,VALID,20.2164,VALID,137,VALID,0.129207,
2002-01-17, 00:06:00,VALID,916.927,VALID,0,VALID,97.3172,VALID,-0.0679233,VALID,20.1736,VALID,65,VALID,0.215993,
2002-01-17, 00:07:00,VALID,916.92,VALID,0,VALID,97.1989,VALID,-0.0509425,VALID,20.1704,VALID,44,VALID,0,
2002-01-17, 00:08:00,VALID,916.896,VALID,0,VALID,97.0323,VALID,0.0679233,VALID,20.1274,VALID,42,VALID,0,
2002-01-17, 00:09:00,VALID,916.889,VALID,0,VALID,96.9624,VALID,0.0339617,VALID,20.0945,VALID,39,VALID,0,
2002-01-17, 00:10:00,VALID,916.883,VALID,0,VALID,96.7615,VALID,0.0509425,VALID,20.0496,VALID,39,VALID,0,
2002-01-17, 00:11:00,VALID,916.888,VALID,0,VALID,96.7551,VALID,0.0169808,VALID,20.0145,VALID,39,VALID,0,
2002-01-17, 00:12:00,VALID,916.883,VALID,0,VALID,96.867,VALID,0.0169808,VALID,19.9917,VALID,40,VALID,0,
2002-01-17, 00:13:00,VALID,916.883,VALID,0,VALID,96.8556,VALID,0.0509425,VALID,19.9755,VALID,44,VALID,0,
2002-01-17, 00:14:00,VALID,916.887,VALID,0,VALID,96.8365,VALID,0.0169808,VALID,19.9668,VALID,47,VALID,0,
2002-01-17, 00:15:00,VALID,916.892,VALID,0,VALID,96.8365,VALID,0.0169808,VALID,19.9408,VALID,47,VALID,0,
2002-01-17, 00:16:00,VALID,916.895,VALID,0,VALID,96.7297,VALID,0,VALID,19.9055,VALID,42,VALID,0,
2002-01-17, 00:17:00,VALID,916.886,VALID,0,VALID,96.525,VALID,0,VALID,19.8178,VALID,32,VALID,0,
2002-01-17, 00:18:00,VALID,916.888,VALID,0,VALID,96.6661,VALID,0.0339617,VALID,19.7589,VALID,25,VALID,0,
2002-01-17, 00:19:00,VALID,916.89,VALID,0,VALID,97.0425,VALID,0.0509425,VALID,19.782,VALID,18,VALID,0.239453,
2002-01-17, 00:20:00,VALID,916.883,VALID,0,VALID,97.2205,VALID,0.0339617,VALID,19.7852,VALID,19,VALID,0.680715,
2002-01-17, 00:21:00,VALID,916.893,VALID,0,VALID,97.41,VALID,0.0679233,VALID,19.8108,VALID,18,VALID,0.546289,
2002-01-17, 00:22:00,VALID,916.893,VALID,0,VALID,97.3846,VALID,0.0509425,VALID,19.8011,VALID,20,VALID,0.699319,
2002-01-17, 00:23:00,VALID,916.896,VALID,0,VALID,97.5143,VALID,-0.0169808,VALID,19.8252,VALID,14,VALID,0.671094,
2002-01-17, 00:24:00,VALID,916.881,VALID,0,VALID,97.5333,VALID,-0.0339617,VALID,19.8115,VALID,11,VALID,0.255345,
2002-01-17, 00:25:00,VALID,916.875,VALID,0,VALID,97.3973,VALID,-0.0339617,VALID,19.8093,VALID,34,VALID,0.39043,
2002-01-17, 00:26:00,VALID,916.856,VALID,0,VALID,97.5219,VALID,-0.0169808,VALID,19.8023,VALID,50,VALID,0.658253,
2002-01-17, 00:27:00,VALID,916.827,VALID,0,VALID,97.6325,VALID,-0.0339617,VALID,19.8158,VALID,48,VALID,0.783398,
2002-01-17, 00:28:00,VALID,916.806,VALID,0,VALID,97.6821,VALID,-0.0339617,VALID,19.8416,VALID,43,VALID,0.636102,
2002-01-17, 00:29:00,VALID,916.8,VALID,0,VALID,97.6071,VALID,-0.0679233,VALID,19.8518,VALID,48,VALID,0.388672,
2002-01-17, 00:30:00,VALID,916.787,VALID,0,VALID,97.6389,VALID,-0.0169808,VALID,19.8575,VALID,67,VALID,0.52484,
2002-01-17, 00:31:00,VALID,916.786,VALID,0,VALID,97.6808,VALID,-0.0169808,VALID,19.8866,VALID,70,VALID,0.906445,
2002-01-17, 00:32:00,VALID,916.775,VALID,0,VALID,97.6058,VALID,0,VALID,19.9194,VALID,63,VALID,0.894737,
2002-01-17, 00:33:00,VALID,916.77,VALID,0,VALID,97.3782,VALID,-0.0169808,VALID,19.9256,VALID,68,VALID,0.625781,
2002-01-17, 00:34:00,VALID,916.756,VALID,0,VALID,97.1112,VALID,-0.0169808,VALID,19.9219,VALID,98,VALID,0.626002,
2002-01-17, 00:35:00,VALID,916.736,VALID,0,VALID,96.984,VALID,-0.0169808,VALID,19.9318,VALID,113,VALID,0.566992,
2002-01-17, 00:36:00,VALID,916.721,VALID,0,VALID,96.9548,VALID,0,VALID,19.9216,VALID,87,VALID,0.588405,
2002-01-17, 00:37:00,VALID,916.709,VALID,0,VALID,96.792,VALID,0,VALID,19.9286,VALID,115,VALID,0.716992,
2002-01-17, 00:38:00,VALID,916.684,VALID,0,VALID,96.5479,VALID,-0.0509425,VALID,19.9092,VALID,140,VALID,0.651242,
2002-01-17, 00:39:00,VALID,916.667,VALID,0,VALID,96.5313,VALID,0,VALID,19.8988,VALID,131,VALID,0.826758,
2002-01-17, 00:40:00,VALID,916.652,VALID,0,VALID,96.5237,VALID,-0.0339617,VALID,19.9055,VALID,121,VALID,0.406456,
2002-01-17, 00:41:00,VALID,916.624,VALID,0,VALID,96.4003,VALID,-0.0169808,VALID,19.899,VALID,130,VALID,0.358594,
2002-01-17, 00:42:00,VALID,916.599,VALID,0,VALID,96.4207,VALID,-0.0169808,VALID,19.8801,VALID,150,VALID,0.372396,
2002-01-17, 00:43:00,VALID,916.574,VALID,0,VALID,96.4639,VALID,-0.0169808,VALID,19.8771,VALID,154,VALID,0.0121094,
2002-01-17, 00:44:00,VALID,916.569,VALID,0,VALID,96.2783,VALID,0,VALID,19.8411,VALID,154,VALID,0,
2002-01-17, 00:45:00,VALID,916.571,VALID,0,VALID,96.1498,VALID,0.0169808,VALID,19.8086,VALID,135,VALID,0.000976563,
2002-01-17, 00:46:00,VALID,916.575,VALID,0,VALID,95.7366,VALID,0.0169808,VALID,19.7283,VALID,129,VALID,0.000400641,
2002-01-17, 00:47:00,VALID,916.562,VALID,0,VALID,96.01,VALID,-0.0169808,VALID,19.6664,VALID,107,VALID,0.0341797,
2002-01-17, 00:48:00,VALID,916.536,VALID,0,VALID,96.394,VALID,0,VALID,19.6664,VALID,107,VALID,0.155633,
2002-01-17, 00:49:00,VALID,916.521,VALID,0,VALID,96.6954,VALID,0,VALID,19.6798,VALID,107,VALID,0.350195,
2002-01-17, 00:50:00,VALID,916.496,VALID,0,VALID,96.9878,VALID,0,VALID,19.6995,VALID,111,VALID,0.725361,
2002-01-17, 00:51:00,VALID,916.459,VALID,0,VALID,97.2587,VALID,0,VALID,19.7159,VALID,122,VALID,0.737891,
2002-01-17, 00:52:00,VALID,916.438,VALID,0,VALID,97.321,VALID,0.0169808,VALID,19.7094,VALID,122,VALID,0.26028,
2002-01-17, 00:53:00,VALID,916.424,VALID,0,VALID,97.4011,VALID,0,VALID,19.6898,VALID,105,VALID,0.425586,
2002-01-17, 00:54:00,VALID,916.413,VALID,0,VALID,97.5333,VALID,0,VALID,19.6928,VALID,114,VALID,0.417668,
2002-01-17, 00:55:00,VALID,916.408,VALID,0,VALID,97.466,VALID,-0.0169808,VALID,19.6734,VALID,112,VALID,0.130078,
2002-01-17, 00:56:00,VALID,916.413,VALID,0,VALID,97.3553,VALID,-0.0339617,VALID,19.6321,VALID,94,VALID,0,
2002-01-17, 00:57:00,VALID,916.414,VALID,0,VALID,97.2065,VALID,-0.0169808,VALID,19.5573,VALID,66,VALID,0.234375,
2002-01-17, 00:58:00,VALID,916.408,VALID,0,VALID,97.1798,VALID,-0.0169808,VALID,19.4994,VALID,53,VALID,0.419471,
2002-01-17, 00:59:00,VALID,916.4,VALID,0,VALID,97.1239,VALID,-0.0339617,VALID,19.4448,VALID,52,VALID,0.576758,
2002-01-17, 01:00:00,VALID,916.389,VALID,0,VALID,97.1887,VALID,-0.0509425,VALID,19.4122,VALID,53,VALID,0.64597,
2002-01-17, 01:01:00,VALID,916.362,VALID,0,VALID,97.4189,VALID,-0.0169808,VALID,19.4192,VALID,65,VALID,0.848633,
2002-01-17, 01:02:00,VALID,916.345,VALID,0,VALID,97.4876,VALID,-0.0169808,VALID,19.4289,VALID,79,VALID,0.918269,
2002-01-17, 01:03:00,VALID,916.306,VALID,0,VALID,97.5105,VALID,-0.0169808,VALID,19.4224,VALID,87,VALID,0.771094,
2002-01-17, 01:04:00,VALID,916.287,VALID,0,VALID,97.5626,VALID,-0.0169808,VALID,19.4331,VALID,94,VALID,0.696546,
2002-01-17, 01:05:00,VALID,916.267,VALID,0,VALID,97.63,VALID,-0.0509425,VALID,19.4254,VALID,101,VALID,0.594336,
2002-01-17, 01:06:00,VALID,916.231,VALID,0,VALID,97.616,VALID,-0.0339617,VALID,19.4319,VALID,100,VALID,0.848958,
2002-01-17, 01:07:00,VALID,916.23,VALID,0,VALID,97.6719,VALID,0,VALID,19.4704,VALID,99,VALID,0.714844,
2002-01-17, 01:08:00,VALID,916.217,VALID,0,VALID,97.41,VALID,0.0169808,VALID,19.4756,VALID,90,VALID,0.643092,
2002-01-17, 01:09:00,VALID,916.226,VALID,0,VALID,97.0196,VALID,0.0509425,VALID,19.4503,VALID,84,VALID,0.566797,
2002-01-17, 01:10:00,VALID,916.23,VALID,0,VALID,96.9827,VALID,0.0509425,VALID,19.4376,VALID,98,VALID,0.536058,
2002-01-17, 01:11:00,VALID,916.241,VALID,0,VALID,97.1913,VALID,0.0169808,VALID,19.4662,VALID,115,VALID,0.628906,
2002-01-17, 01:12:00,VALID,916.26,VALID,0,VALID,97.2116,VALID,0.0339617,VALID,19.5149,VALID,113,VALID,0.388363,
2002-01-17, 01:13:00,VALID,916.268,VALID,0,VALID,97.0705,VALID,0.0339617,VALID,19.5114,VALID,102,VALID,0.413477,
2002-01-17, 01:14:00,VALID,916.275,VALID,0,VALID,96.731,VALID,0.0169808,VALID,19.489,VALID,86,VALID,0.166667,
2002-01-17, 01:15:00,VALID,916.276,VALID,0,VALID,96.8785,VALID,0.0679233,VALID,19.4793,VALID,116,VALID,0.291406,
2002-01-17, 01:16:00,VALID,916.267,VALID,0,VALID,97.1544,VALID,0.0509425,VALID,19.5178,VALID,132,VALID,0.519942,
2002-01-17, 01:17:00,VALID,916.267,VALID,0,VALID,97.19,VALID,0.0169808,VALID,19.5611,VALID,154,VALID,0.40293,
2002-01-17, 01:18:00,VALID,916.267,VALID,0,VALID,97.1964,VALID,0.0339617,VALID,19.573,VALID,159,VALID,0.501402,
2002-01-17, 01:19:00,VALID,916.268,VALID,0,VALID,97.1697,VALID,0.0169808,VALID,19.5668,VALID,152,VALID,0.362695,
2002-01-17, 01:20:00,VALID,916.264,VALID,0,VALID,97.1786,VALID,0.0509425,VALID,19.5832,VALID,157,VALID,0.559416,
2002-01-17, 01:21:00,VALID,916.265,VALID,0,VALID,97.2498,VALID,0.0339617,VALID,19.5894,VALID,168,VALID,0.221484,
2002-01-17, 01:22:00,VALID,916.271,VALID,0,VALID,97.2574,VALID,0.0509425,VALID,19.5986,VALID,149,VALID,0.354567,
2002-01-17, 01:23:00,VALID,916.282,VALID,0,VALID,97.1773,VALID,0,VALID,19.5829,VALID,152,VALID,0.453125,
2002-01-17, 01:24:00,VALID,916.279,VALID,0,VALID,97.1913,VALID,0,VALID,19.5762,VALID,172,VALID,0.541118,
2002-01-17, 01:25:00,VALID,916.288,VALID,0,VALID,97.218,VALID,0.0169808,VALID,19.5832,VALID,176,VALID,0.494727,
2002-01-17, 01:26:00,VALID,916.28,VALID,0,VALID,97.2193,VALID,0,VALID,19.5598,VALID,173,VALID,0.716947,
2002-01-17, 01:27:00,VALID,916.295,VALID,0,VALID,97.2434,VALID,0.0169808,VALID,19.567,VALID,177,VALID,0.76582,
2002-01-17, 01:28:00,VALID,916.278,VALID,0,VALID,97.2536,VALID,0.0339617,VALID,19.5638,VALID,180,VALID,0.688939,
2002-01-17, 01:29:00,VALID,916.281,VALID,0,VALID,97.279,VALID,0,VALID,19.5606,VALID,173,VALID,0.741602,
2002-01-17, 01:30:00,VALID,916.264,VALID,0,VALID,97.1913,VALID,0,VALID,19.5375,VALID,168,VALID,0.651643,
2002-01-17, 01:31:00,VALID,916.256,VALID,0,VALID,97.2549,VALID,0,VALID,19.5342,VALID,166,VALID,0.66543,
2002-01-17, 01:32:00,VALID,916.247,VALID,0,VALID,97.2091,VALID,0.0509425,VALID,19.541,VALID,168,VALID,0.546875,
2002-01-17, 01:33:00,VALID,916.239,VALID,0,VALID,97.0082,VALID,0.0169808,VALID,19.5218,VALID,122,VALID,0.320898,
2002-01-17, 01:34:00,VALID,916.244,VALID,0,VALID,96.6356,VALID,0,VALID,19.4508,VALID,81,VALID,0.440304,
2002-01-17, 01:35:00,VALID,916.273,VALID,0,VALID,96.867,VALID,0,VALID,19.412,VALID,98,VALID,0.588672,
2002-01-17, 01:36:00,VALID,916.299,VALID,0,VALID,97.1493,VALID,0.0509425,VALID,19.4314,VALID,115,VALID,0.675987,
2002-01-17, 01:37:00,VALID,916.316,VALID,0,VALID,97.368,VALID,0,VALID,19.444,VALID,153,VALID,0.627539,
2002-01-17, 01:38:00,VALID,916.342,VALID,0,VALID,97.4532,VALID,0.0679233,VALID,19.4629,VALID,162,VALID,0.499599,
2002-01-17, 01:39:00,VALID,916.355,VALID,0,VALID,97.452,VALID,0.0339617,VALID,19.4858,VALID,174,VALID,0.709766,
2002-01-17, 01:40:00,VALID,916.344,VALID,0,VALID,97.5855,VALID,0.0509425,VALID,19.5149,VALID,180,VALID,0.847656,
2002-01-17, 01:41:00,VALID,916.311,VALID,0,VALID,97.6732,VALID,0.0339617,VALID,19.5534,VALID,192,VALID,0.655664,
2002-01-17, 01:42:00,VALID,916.281,VALID,0,VALID,97.6033,VALID,0.0509425,VALID,19.5698,VALID,197,VALID,0.350962,
2002-01-17, 01:43:00,VALID,916.245,VALID,0,VALID,97.63,VALID,0.0509425,VALID,19.6016,VALID,206,VALID,0.453516,
2002-01-17, 01:44:00,VALID,916.227,VALID,0,VALID,97.6249,VALID,0.0169808,VALID,19.6443,VALID,187,VALID,0.269737,
2002-01-17, 01:45:00,VALID,916.22,VALID,0,VALID,97.6007,VALID,0.0169808,VALID,19.6796,VALID,176,VALID,0.356836,
2002-01-17, 01:46:00,VALID,916.237,VALID,0,VALID,97.4558,VALID,0,VALID,19.7025,VALID,181,VALID,0.494792,
2002-01-17, 01:47:00,VALID,916.252,VALID,0,VALID,97.026,VALID,0.0509425,VALID,19.6828,VALID,150,VALID,0.232812,
2002-01-17, 01:48:00,VALID,916.248,VALID,0,VALID,96.5237,VALID,0.0169808,VALID,19.6088,VALID,135,VALID,0.229441,
2002-01-17, 01:49:00,VALID,916.245,VALID,0,VALID,96.3609,VALID,0.0509425,VALID,19.5474,VALID,131,VALID,0.311523,
2002-01-17, 01:50:00,VALID,916.221,VALID,0,VALID,96.6572,VALID,0.0169808,VALID,19.5442,VALID,141,VALID,0.427684,
2002-01-17, 01:51:00,VALID,916.187,VALID,0,VALID,96.8022,VALID,0.0339617,VALID,19.5541,VALID,141,VALID,0.472656,
2002-01-17, 01:52:00,VALID,916.161,VALID,0,VALID,96.7513,VALID,-0.0169808,VALID,19.5573,VALID,140,VALID,0.00205592,
2002-01-17, 01:53:00,VALID,916.143,VALID,0,VALID,96.6292,VALID,-0.0679233,VALID,19.5524,VALID,132,VALID,0.0396484,
2002-01-17, 01:54:00,VALID,916.106,VALID,0,VALID,96.7119,VALID,-0.0679233,VALID,19.5327,VALID,130,VALID,0,
2002-01-17, 01:55:00,VALID,916.106,VALID,0,VALID,96.3876,VALID,-0.101885,VALID,19.4907,VALID,130,VALID,0,
2002-01-17, 01:56:00,VALID,916.087,VALID,0,VALID,96.3012,VALID,-0.0509425,VALID,19.4356,VALID,130,VALID,0,
2002-01-17, 01:57:00,VALID,916.085,VALID,0,VALID,96.2032,VALID,-0.0339617,VALID,19.3712,VALID,88,VALID,0.110742,
2002-01-17, 01:58:00,VALID,916.077,VALID,0,VALID,96.3317,VALID,-0.0169808,VALID,19.3456,VALID,34,VALID,0.173678,
2002-01-17, 01:59:00,VALID,916.074,VALID,0,VALID,95.7785,VALID,-0.0509425,VALID,19.2415,VALID,27,VALID,0.345508,
2002-01-17, 02:00:00,VALID,916.076,VALID,0,VALID,95.6654,VALID,-0.0339617,VALID,19.1446,VALID,355,VALID,0.397821,
2002-01-17, 02:01:00,VALID,916.077,VALID,0,VALID,96.6063,VALID,-0.0339617,VALID,19.2028,VALID,345,VALID,0.422656,
2002-01-17, 02:02:00,VALID,916.073,VALID,0,VALID,97.0667,VALID,-0.0509425,VALID,19.2838,VALID,342,VALID,0.158053,
2002-01-17, 02:03:00,VALID,916.062,VALID,0,VALID,97.1748,VALID,-0.0339617,VALID,19.3163,VALID,342,VALID,0.0816406,
2002-01-17, 02:04:00,VALID,916.046,VALID,0,VALID,97.232,VALID,-0.0849042,VALID,19.3389,VALID,341,VALID,0.000205592,
2002-01-17, 02:05:00,VALID,916.033,VALID,0,VALID,97.3197,VALID,-0.0169808,VALID,19.3645,VALID,341,VALID,0.00078125,
2002-01-17, 02:06:00,VALID,916,VALID,0,VALID,97.246,VALID,-0.0169808,VALID,19.374,VALID,341,VALID,0,
2002-01-17, 02:07:00,VALID,915.983,VALID,0,VALID,97.1201,VALID,-0.0509425,VALID,19.371,VALID,31,VALID,0.0138672,
2002-01-17, 02:08:00,VALID,915.969,VALID,0,VALID,97.0183,VALID,-0.0169808,VALID,19.3352,VALID,81,VALID,0.356291,
2002-01-17, 02:09:00,VALID,915.958,VALID,0,VALID,96.6903,VALID,-0.0339617,VALID,19.2805,VALID,111,VALID,0.635547,
2002-01-17, 02:10:00,VALID,915.949,VALID,0,VALID,97.0527,VALID,0,VALID,19.2512,VALID,119,VALID,0.927484,
2002-01-17, 02:11:00,VALID,915.924,VALID,0,VALID,97.4545,VALID,0,VALID,19.2997,VALID,119,VALID,0.89707,
2002-01-17, 02:12:00,VALID,915.898,VALID,0,VALID,97.5372,VALID,-0.0339617,VALID,19.3518,VALID,116,VALID,0.583676,
2002-01-17, 02:13:00,VALID,915.866,VALID,0,VALID,97.3032,VALID,-0.0169808,VALID,19.3287,VALID,111,VALID,0.769922,
2002-01-17, 02:14:00,VALID,915.813,VALID,0,VALID,97.1735,VALID,0,VALID,19.3064,VALID,101,VALID,0.686699,
2002-01-17, 02:15:00,VALID,915.775,VALID,0,VALID,96.8543,VALID,0,VALID,19.2679,VALID,85,VALID,0.523828,
2002-01-17, 02:16:00,VALID,915.729,VALID,0,VALID,96.38,VALID,-0.0169808,VALID,19.1608,VALID,60,VALID,0.683183,
2002-01-17, 02:17:00,VALID,915.682,VALID,0,VALID,96.3279,VALID,0,VALID,19.0999,VALID,77,VALID,0.516211,
2002-01-17, 02:18:00,VALID,915.645,VALID,0,VALID,96.4614,VALID,0.0169808,VALID,19.0477,VALID,75,VALID,0.354968,
2002-01-17, 02:19:00,VALID,915.617,VALID,0,VALID,96.8696,VALID,0.0169808,VALID,19.0418,VALID,100,VALID,0.647461,
2002-01-17, 02:20:00,VALID,915.609,VALID,0,VALID,97.3197,VALID,0,VALID,19.0865,VALID,93,VALID,0.685855,
2002-01-17, 02:21:00,VALID,915.618,VALID,0,VALID,97.3986,VALID,0,VALID,19.1126,VALID,76,VALID,0.543174,
2002-01-17, 02:22:00,VALID,915.623,VALID,0,VALID,97.204,VALID,-0.0169808,VALID,19.0835,VALID,58,VALID,0.66867,
2002-01-17, 02:23:00,VALID,915.633,VALID,0,VALID,97.0705,VALID,0.0169808,VALID,19.0348,VALID,69,VALID,0.434961,
2002-01-17, 02:24:00,VALID,915.622,VALID,0,VALID,97.4265,VALID,0,VALID,19.0512,VALID,108,VALID,0.341488,
2002-01-17, 02:25:00,VALID,915.611,VALID,0,VALID,97.5995,VALID,0,VALID,19.0934,VALID,88,VALID,0.28418,
2002-01-17, 02:26:00,VALID,915.612,VALID,0,VALID,97.4049,VALID,0,VALID,19.1006,VALID,67,VALID,0.245393,
2002-01-17, 02:27:00,VALID,915.598,VALID,0,VALID,97.101,VALID,-0.0169808,VALID,19.0448,VALID,65,VALID,0.360352,
2002-01-17, 02:28:00,VALID,915.599,VALID,0,VALID,97.1938,VALID,0,VALID,19.0154,VALID,73,VALID,0.292146,
2002-01-17, 02:29:00,VALID,915.574,VALID,0,VALID,97.3591,VALID,0,VALID,19.0318,VALID,84,VALID,0.100781,
2002-01-17, 02:30:00,VALID,915.56,VALID,0,VALID,97.6046,VALID,0,VALID,19.0641,VALID,125,VALID,0.326522,
2002-01-17, 02:31:00,VALID,915.53,VALID,0,VALID,97.5829,VALID,0,VALID,19.0867,VALID,134,VALID,0.245898,
2002-01-17, 02:32:00,VALID,915.495,VALID,0,VALID,97.6694,VALID,0,VALID,19.0932,VALID,134,VALID,0.593956,
2002-01-17, 02:33:00,VALID,915.483,VALID,0,VALID,97.7953,VALID,0,VALID,19.1253,VALID,136,VALID,0.575195,
2002-01-17, 02:34:00,VALID,915.489,VALID,0,VALID,97.7826,VALID,-0.0169808,VALID,19.1416,VALID,131,VALID,0.575521,
2002-01-17, 02:35:00,VALID,915.484,VALID,0,VALID,97.7546,VALID,0,VALID,19.1583,VALID,117,VALID,0.669141,
2002-01-17, 02:36:00,VALID,915.476,VALID,0,VALID,97.883,VALID,-0.0169808,VALID,19.1841,VALID,102,VALID,0.794408,
2002-01-17, 02:37:00,VALID,915.466,VALID,0,VALID,97.9174,VALID,-0.0169808,VALID,19.1968,VALID,116,VALID,0.825391,
2002-01-17, 02:38:00,VALID,915.457,VALID,0,VALID,97.911,VALID,0,VALID,19.2259,VALID,133,VALID,0.784455,
2002-01-17, 02:39:00,VALID,915.437,VALID,0,VALID,97.967,VALID,0,VALID,19.2552,VALID,144,VALID,1.12754,
2002-01-17, 02:40:00,VALID,915.415,VALID,0,VALID,98.0585,VALID,0,VALID,19.3034,VALID,146,VALID,1.30962,
2002-01-17, 02:41:00,VALID,915.428,VALID,0,VALID,97.9962,VALID,0,VALID,19.3285,VALID,147,VALID,1.23418,
2002-01-17, 02:42:00,VALID,915.429,VALID,0,VALID,98.0102,VALID,0,VALID,19.364,VALID,147,VALID,1.63762,
2002-01-17, 02:43:00,VALID,915.428,VALID,0,VALID,98,VALID,-0.0169808,VALID,19.4229,VALID,150,VALID,1.38164,
2002-01-17, 02:44:00,VALID,915.423,VALID,0,VALID,97.864,VALID,-0.0169808,VALID,19.4353,VALID,145,VALID,1.75761,
2002-01-17, 02:45:00,VALID,915.405,VALID,0,VALID,97.8474,VALID,0,VALID,19.4878,VALID,144,VALID,1.75996,
2002-01-17, 02:46:00,VALID,915.38,VALID,0,VALID,97.7152,VALID,0,VALID,19.5074,VALID,148,VALID,1.53966,
2002-01-17, 02:47:00,VALID,915.357,VALID,0,VALID,97.5918,VALID,-0.0169808,VALID,19.5062,VALID,147,VALID,1.6502,
2002-01-17, 02:48:00,VALID,915.35,VALID,0,VALID,97.4736,VALID,-0.0339617,VALID,19.5126,VALID,150,VALID,1.26192,
2002-01-17, 02:49:00,VALID,915.32,VALID,0,VALID,97.3858,VALID,-0.0169808,VALID,19.5161,VALID,138,VALID,1.33047,
2002-01-17, 02:50:00,VALID,915.299,VALID,0,VALID,97.2409,VALID,-0.0169808,VALID,19.5191,VALID,132,VALID,1.15325,
2002-01-17, 02:51:00,VALID,915.274,VALID,0,VALID,97.0107,VALID,0.0169808,VALID,19.5134,VALID,128,VALID,0.84375,
2002-01-17, 02:52:00,VALID,915.255,VALID,0,VALID,97.087,VALID,-0.0169808,VALID,19.5355,VALID,135,VALID,1.38487,
2002-01-17, 02:53:00,VALID,915.224,VALID,0,VALID,96.7742,VALID,0,VALID,19.5904,VALID,131,VALID,1.0459,
2002-01-17, 02:54:00,VALID,915.214,VALID,0,VALID,96.4665,VALID,0,VALID,19.6257,VALID,124,VALID,0.796675,
2002-01-17, 02:55:00,VALID,915.188,VALID,0,VALID,96.1397,VALID,-0.0169808,VALID,19.6714,VALID,105,VALID,1.02637,
2002-01-17, 02:56:00,VALID,915.178,VALID,0,VALID,95.9095,VALID,0,VALID,19.7102,VALID,118,VALID,1.21649,
2002-01-17, 02:57:00,VALID,915.168,VALID,0,VALID,95.6221,VALID,0.0169808,VALID,19.7517,VALID,124,VALID,0.883203,
2002-01-17, 02:58:00,VALID,915.153,VALID,0,VALID,95.4365,VALID,-0.0169808,VALID,19.7681,VALID,131,VALID,0.81871,
2002-01-17, 02:59:00,VALID,915.118,VALID,0,VALID,95.3907,VALID,0,VALID,19.823,VALID,123,VALID,1.28457,
2002-01-17, 03:00:00,VALID,915.112,VALID,0,VALID,95.0245,VALID,0,VALID,19.8714,VALID,120,VALID,0.886924,
2002-01-17, 03:01:00,VALID,915.103,VALID,0,VALID,94.7511,VALID,0.0169808,VALID,19.91,VALID,135,VALID,1.17793,
2002-01-17, 03:02:00,VALID,915.087,VALID,0,VALID,94.5654,VALID,0,VALID,19.9527,VALID,131,VALID,1.28065,
2002-01-17, 03:03:00,VALID,915.101,VALID,0,VALID,94.2907,VALID,-0.0169808,VALID,19.9751,VALID,123,VALID,1.57305,
2002-01-17, 03:04:00,VALID,915.127,VALID,0,VALID,94.1547,VALID,-0.0169808,VALID,19.9974,VALID,117,VALID,1.30798,
2002-01-17, 03:05:00,VALID,915.156,VALID,0,VALID,94.1852,VALID,-0.0509425,VALID,20.03,VALID,126,VALID,1.64473,
2002-01-17, 03:06:00,VALID,915.164,VALID,0,VALID,94.1178,VALID,0,VALID,20.0591,VALID,134,VALID,1.11899,
2002-01-17, 03:07:00,VALID,915.169,VALID,0,VALID,94.0097,VALID,-0.0339617,VALID,20.0881,VALID,120,VALID,1.67949,
2002-01-17, 03:08:00,VALID,915.16,VALID,0,VALID,94.0161,VALID,-0.0339617,VALID,20.121,VALID,126,VALID,1.84005,
2002-01-17, 03:09:00,VALID,915.159,VALID,0,VALID,93.9995,VALID,-0.0339617,VALID,20.1304,VALID,122,VALID,1.15293,
2002-01-17, 03:10:00,VALID,915.155,VALID,0,VALID,94.0835,VALID,-0.0169808,VALID,20.1274,VALID,127,VALID,1.12139,
2002-01-17, 03:11:00,VALID,915.142,VALID,0,VALID,94.2704,VALID,-0.0339617,VALID,20.1145,VALID,134,VALID,1.7543,
2002-01-17, 03:12:00,VALID,915.126,VALID,0,VALID,94.4116,VALID,0,VALID,20.1075,VALID,136,VALID,1.57134,
2002-01-17, 03:13:00,VALID,915.122,VALID,0,VALID,94.3721,VALID,0,VALID,20.0909,VALID,124,VALID,1.03027,
2002-01-17, 03:14:00,VALID,915.106,VALID,0,VALID,94.3759,VALID,-0.0169808,VALID,20.0876,VALID,138,VALID,0.957732,
2002-01-17, 03:15:00,VALID,915.095,VALID,0,VALID,94.4624,VALID,-0.0169808,VALID,20.0879,VALID,109,VALID,0.84043,
2002-01-17, 03:16:00,VALID,915.092,VALID,0,VALID,94.54,VALID,-0.0339617,VALID,20.0785,VALID,113,VALID,0.886719,
2002-01-17, 03:17:00,VALID,915.096,VALID,0,VALID,94.6061,VALID,0,VALID,20.0785,VALID,117,VALID,1.19141,
2002-01-17, 03:18:00,VALID,915.113,VALID,0,VALID,94.69,VALID,0.0169808,VALID,20.0586,VALID,124,VALID,1.0647,
2002-01-17, 03:19:00,VALID,915.128,VALID,0,VALID,94.863,VALID,-0.0169808,VALID,20.0526,VALID,134,VALID,1.04316,
2002-01-17, 03:20:00,VALID,915.121,VALID,0,VALID,94.7956,VALID,0,VALID,20.0322,VALID,137,VALID,1.37027,
2002-01-17, 03:21:00,VALID,915.121,VALID,0,VALID,94.8388,VALID,0,VALID,20.0392,VALID,129,VALID,1.06699,
2002-01-17, 03:22:00,VALID,915.099,VALID,0,VALID,94.7218,VALID,-0.0339617,VALID,20.0434,VALID,114,VALID,0.755208,
2002-01-17, 03:23:00,VALID,915.091,VALID,0,VALID,94.6951,VALID,-0.101885,VALID,20.0151,VALID,90,VALID,0.643555,
2002-01-17, 03:24:00,VALID,915.068,VALID,0,VALID,94.8414,VALID,-0.101885,VALID,19.9892,VALID,122,VALID,1.02508,
2002-01-17, 03:25:00,VALID,915.035,VALID,0,VALID,95.0448,VALID,-0.118866,VALID,19.9699,VALID,108,VALID,1.28008,
2002-01-17, 03:26:00,VALID,915.029,VALID,0,VALID,95.1631,VALID,-0.101885,VALID,19.989,VALID,82,VALID,1.40004,
2002-01-17, 03:27:00,VALID,915.012,VALID,0,VALID,95.172,VALID,-0.0849042,VALID,20.0278,VALID,97,VALID,1.06328,
2002-01-17, 03:28:00,VALID,914.993,VALID,0,VALID,94.966,VALID,-0.101885,VALID,20.073,VALID,92,VALID,1.06517,
2002-01-17, 03:29:00,VALID,914.99,VALID,0,VALID,94.5997,VALID,-0.118866,VALID,20.0864,VALID,91,VALID,1.44961,
2002-01-17, 03:30:00,VALID,914.985,VALID,0,VALID,94.4166,VALID,-0.101885,VALID,20.0598,VALID,97,VALID,1.19511,
2002-01-17, 03:31:00,VALID,914.992,VALID,0,VALID,94.6265,VALID,-0.0849042,VALID,20.0504,VALID,95,VALID,1.50801,
2002-01-17, 03:32:00,VALID,915.007,VALID,0,VALID,94.8172,VALID,-0.0849042,VALID,20.0598,VALID,113,VALID,1.29132,
2002-01-17, 03:33:00,VALID,915.028,VALID,0,VALID,94.8452,VALID,-0.0849042,VALID,20.0695,VALID,131,VALID,1.31152,
2002-01-17, 03:34:00,VALID,915.041,VALID,0,VALID,94.746,VALID,-0.101885,VALID,20.0633,VALID,117,VALID,0.744591,